Back to catalog

USA 473

AliveMilitaryVLEO
NORAD 62542·PAYLOAD·🇺🇸 United States

Launched Jan 10, 2025 from Vandenberg Space Force Base

Loading…

Next Passes (next 24 hours)

TLE

StaleSource: Mike McCants

Epoch: Aug 21, 2026, 20:57 UTC

1 62542U 25005L   26233.87340963 0.00000000  00000-0  00000-0 0    00
2 62542  70.0200 252.1175 0003000 135.4484 224.5515 14.96713439    06

Track USA 473 in real time with AllMySat

Download on the App Store